(°C)
-2°
-2°
-3°
-2°
-1°
(°C)
-5°
-6°
-6°
-6°
-5°
-3°
-0°
KKB
KKB
KKB
KKB
KB
KKB
KKB
(km/saat)
5-7
4-8
4-8
4-7
4-6
3-6
3-10
(mm)
0
0
0
0
0
0
0
(%)
0
0
0
0
0
0
0

Güneşin açısı

/ -20.1°
sun-icon
UV 2
07:12
18:59
Son çeyrek ay (274°)
22:18
16:56

57.92°K 56.02°D (USPP) için METAR

Zaman Koşullar Sıcaklık/
Çiy noktası
Rüzgar Görünürlük Hava Bulutlar Basınç Değiştir Ham
VFR -2°C / -3°C 260º 2kt >10km - Clouds and Visibility OK 1027 No Significant change. Runway 21: Clear and dry, 51-100% contamination with <1mm, friction coefficient 0.60. USPP 282300Z 26001MPS CAVOK M02/M03 Q1027 R21/090060 NOSIG RMK QFE759
VFR -1°C / -2°C 250º 2kt >10km - Clouds and Visibility OK 1027 No Significant change. Runway 21: Clear and dry, 51-100% contamination with <1mm, friction coefficient 0.60. USPP 282230Z 25001MPS CAVOK M01/M02 Q1027 R21/090060 NOSIG RMK QFE759
VFR -1°C / -3°C 250º 4kt >10km - Clouds and Visibility OK 1027 No Significant change. Runway 21: Clear and dry, 51-100% contamination with <1mm, friction coefficient 0.60. USPP 282200Z 25002MPS CAVOK M01/M03 Q1027 R21/090060 NOSIG RMK QFE759
VFR 0°C / -2°C 270º 4kt >10km - Clouds and Visibility OK 1027 No Significant change. Runway 21: Clear and dry, 51-100% contamination with <1mm, friction coefficient 0.60. USPP 282130Z 27002MPS CAVOK M00/M02 Q1027 R21/090060 NOSIG RMK QFE759
VFR -1°C / -3°C 250º 4kt >10km - Clouds and Visibility OK 1027 No Significant change. Runway 21: Clear and dry, 51-100% contamination with <1mm, friction coefficient 0.60. USPP 282100Z 25002MPS CAVOK M01/M03 Q1027 R21/090060 NOSIG RMK QFE759
VFR 0°C / -3°C 260º 4kt >10km - Clouds and Visibility OK 1027 No Significant change. Runway 21: Clear and dry, 51-100% contamination with <1mm, friction coefficient 0.60. USPP 282030Z 26002MPS CAVOK M00/M03 Q1027 R21/090060 NOSIG RMK QFE759
VFR 1°C / -2°C 250º 6kt >10km - Clouds and Visibility OK 1027 No Significant change. Runway 21: Clear and dry, 51-100% contamination with <1mm, friction coefficient 0.60. USPP 282000Z 25003MPS CAVOK 01/M02 Q1027 R21/090060 NOSIG RMK QFE759
VFR 0°C / -2°C 240º 6kt >10km - Clouds and Visibility OK 1027 No Significant change. Runway 21: Clear and dry, 51-100% contamination with <1mm, friction coefficient 0.60. USPP 281930Z 24003MPS CAVOK 00/M02 Q1027 R21/090060 NOSIG RMK QFE759
VFR 0°C / -2°C 240º 6kt >10km - Clouds and Visibility OK 1027 No Significant change. Runway 21: Clear and dry, 51-100% contamination with <1mm, friction coefficient 0.60. USPP 281900Z 24003MPS CAVOK 00/M02 Q1027 R21/090060 NOSIG RMK QFE759
VFR 2°C / -1°C 250º 6kt >10km - Clouds and Visibility OK 1027 No Significant change. Runway 21: Clear and dry, 51-100% contamination with <1mm, friction coefficient 0.60. USPP 281830Z 25003MPS CAVOK 02/M01 Q1027 R21/090060 NOSIG RMK QFE759
VFR 1°C / -2°C 250º 4kt >10km - Clouds and Visibility OK 1027 No Significant change. Runway 21: Clear and dry, 51-100% contamination with <1mm, friction coefficient 0.60. USPP 281800Z 25002MPS CAVOK 01/M02 Q1027 R21/090060 NOSIG RMK QFE759
VFR 4°C / -1°C 10º 2kt >10km - Clouds and Visibility OK 1027 No Significant change. Runway 21: Clear and dry, 51-100% contamination with <1mm, friction coefficient 0.60. USPP 281730Z 01001MPS CAVOK 04/M01 Q1027 R21/090060 NOSIG RMK QFE759
VFR 4°C / -1°C 20º 4kt >10km - Clouds and Visibility OK 1027 No Significant change. Runway 21: Clear and dry, 51-100% contamination with <1mm, friction coefficient 0.60. USPP 281700Z 02002MPS CAVOK 04/M01 Q1027 R21/090060 NOSIG RMK QFE759
VFR 4°C / -1°C 20º 4kt >10km - Clouds and Visibility OK 1027 No Significant change. Runway 21: Clear and dry, 51-100% contamination with <1mm, friction coefficient 0.60. USPP 281630Z 02002MPS CAVOK 04/M01 Q1027 R21/090060 NOSIG RMK QFE759
VFR 5°C / -1°C 20º 4kt >10km - Clouds and Visibility OK 1027 No Significant change. Runway 21: Clear and dry, 51-100% contamination with <1mm, friction coefficient 0.60. USPP 281600Z 02002MPS CAVOK 05/M01 Q1027 R21/090060 NOSIG RMK QFE759
VFR 5°C / -1°C 20º 4kt >10km - Clouds and Visibility OK 1026 No Significant change. Runway 21: Clear and dry, 51-100% contamination with <1mm, friction coefficient 0.60. USPP 281530Z 02002MPS CAVOK 05/M01 Q1026 R21/090060 NOSIG RMK QFE759
VFR 6°C / -1°C 10º 4kt >10km - Clouds and Visibility OK 1026 No Significant change. Runway 21: Clear and dry, 51-100% contamination with <1mm, friction coefficient 0.60. USPP 281500Z 01002MPS CAVOK 06/M01 Q1026 R21/090060 NOSIG RMK QFE759
VFR 6°C / -1°C 360º 4kt >10km - Clouds and Visibility OK 1026 No Significant change. Runway 21: Clear and dry, 51-100% contamination with <1mm, friction coefficient 0.60. USPP 281430Z 36002MPS CAVOK 06/M01 Q1026 R21/090060 NOSIG RMK QFE759
VFR 7°C / -1°C 350º 6kt >10km - Clouds and Visibility OK 1026 No Significant change. Runway 03: Clear and dry, 51-100% contamination with <1mm, friction coefficient 0.60. USPP 281400Z 35003MPS CAVOK 07/M01 Q1026 R03/090060 NOSIG RMK QFE759
VFR 8°C / -2°C 340º 4kt >10km - Clouds and Visibility OK 1026 No Significant change. Runway 03: Clear and dry, 51-100% contamination with <1mm, friction coefficient 0.60. USPP 281330Z 34002MPS CAVOK 08/M02 Q1026 R03/090060 NOSIG RMK QFE759
VFR 8°C / -2°C 20º 6kt >10km - Clouds and Visibility OK 1026 No Significant change. Runway 03: Clear and dry, 51-100% contamination with <1mm, friction coefficient 0.60. USPP 281300Z 02003MPS CAVOK 08/M02 Q1026 R03/090060 NOSIG RMK QFE759
VFR 8°C / -3°C 40º 8kt >10km - Clouds and Visibility OK 1026 No Significant change. Runway 03: Clear and dry, 51-100% contamination with <1mm, friction coefficient 0.60. USPP 281230Z 04004MPS CAVOK 08/M03 Q1026 R03/090060 NOSIG RMK QFE759
VFR 9°C / -2°C 40º 10kt >10km - Clouds and Visibility OK 1026 No Significant change. Runway 03: Clear and dry, 51-100% contamination with <1mm, friction coefficient 0.60. USPP 281200Z 04005MPS CAVOK 09/M02 Q1026 R03/090060 NOSIG RMK QFE759
VFR 9°C / -3°C 50º 10kt >10km - Clouds and Visibility OK 1026 No Significant change. Runway 03: Clear and dry, 51-100% contamination with <1mm, friction coefficient 0.60. USPP 281130Z 05005MPS CAVOK 09/M03 Q1026 R03/090060 NOSIG RMK QFE759

VFR

-2°C / -3°C

[Daha fazla]
Rüzgar 260º 2kt
Görünürlük >10km
Hava -
Bulutlar Clouds and Visibility OK
Basınç 1027
Değiştir No Significant change. Runway 21: Clear and dry, 51-100% contamination with <1mm, friction coefficient 0.60.
Ham USPP 282300Z 26001MPS CAVOK M02/M03 Q1027 R21/090060 NOSIG RMK QFE759

VFR

-1°C / -2°C

[Daha fazla]
Rüzgar 250º 2kt
Görünürlük >10km
Hava -
Bulutlar Clouds and Visibility OK
Basınç 1027
Değiştir No Significant change. Runway 21: Clear and dry, 51-100% contamination with <1mm, friction coefficient 0.60.
Ham USPP 282230Z 25001MPS CAVOK M01/M02 Q1027 R21/090060 NOSIG RMK QFE759

VFR

-1°C / -3°C

[Daha fazla]
Rüzgar 250º 4kt
Görünürlük >10km
Hava -
Bulutlar Clouds and Visibility OK
Basınç 1027
Değiştir No Significant change. Runway 21: Clear and dry, 51-100% contamination with <1mm, friction coefficient 0.60.
Ham USPP 282200Z 25002MPS CAVOK M01/M03 Q1027 R21/090060 NOSIG RMK QFE759

VFR

0°C / -2°C

[Daha fazla]
Rüzgar 270º 4kt
Görünürlük >10km
Hava -
Bulutlar Clouds and Visibility OK
Basınç 1027
Değiştir No Significant change. Runway 21: Clear and dry, 51-100% contamination with <1mm, friction coefficient 0.60.
Ham USPP 282130Z 27002MPS CAVOK M00/M02 Q1027 R21/090060 NOSIG RMK QFE759

VFR

-1°C / -3°C

[Daha fazla]
Rüzgar 250º 4kt
Görünürlük >10km
Hava -
Bulutlar Clouds and Visibility OK
Basınç 1027
Değiştir No Significant change. Runway 21: Clear and dry, 51-100% contamination with <1mm, friction coefficient 0.60.
Ham USPP 282100Z 25002MPS CAVOK M01/M03 Q1027 R21/090060 NOSIG RMK QFE759

VFR

0°C / -3°C

[Daha fazla]
Rüzgar 260º 4kt
Görünürlük >10km
Hava -
Bulutlar Clouds and Visibility OK
Basınç 1027
Değiştir No Significant change. Runway 21: Clear and dry, 51-100% contamination with <1mm, friction coefficient 0.60.
Ham USPP 282030Z 26002MPS CAVOK M00/M03 Q1027 R21/090060 NOSIG RMK QFE759

VFR

1°C / -2°C

[Daha fazla]
Rüzgar 250º 6kt
Görünürlük >10km
Hava -
Bulutlar Clouds and Visibility OK
Basınç 1027
Değiştir No Significant change. Runway 21: Clear and dry, 51-100% contamination with <1mm, friction coefficient 0.60.
Ham USPP 282000Z 25003MPS CAVOK 01/M02 Q1027 R21/090060 NOSIG RMK QFE759

VFR

0°C / -2°C

[Daha fazla]
Rüzgar 240º 6kt
Görünürlük >10km
Hava -
Bulutlar Clouds and Visibility OK
Basınç 1027
Değiştir No Significant change. Runway 21: Clear and dry, 51-100% contamination with <1mm, friction coefficient 0.60.
Ham USPP 281930Z 24003MPS CAVOK 00/M02 Q1027 R21/090060 NOSIG RMK QFE759

VFR

0°C / -2°C

[Daha fazla]
Rüzgar 240º 6kt
Görünürlük >10km
Hava -
Bulutlar Clouds and Visibility OK
Basınç 1027
Değiştir No Significant change. Runway 21: Clear and dry, 51-100% contamination with <1mm, friction coefficient 0.60.
Ham USPP 281900Z 24003MPS CAVOK 00/M02 Q1027 R21/090060 NOSIG RMK QFE759

VFR

2°C / -1°C

[Daha fazla]
Rüzgar 250º 6kt
Görünürlük >10km
Hava -
Bulutlar Clouds and Visibility OK
Basınç 1027
Değiştir No Significant change. Runway 21: Clear and dry, 51-100% contamination with <1mm, friction coefficient 0.60.
Ham USPP 281830Z 25003MPS CAVOK 02/M01 Q1027 R21/090060 NOSIG RMK QFE759

VFR

1°C / -2°C

[Daha fazla]
Rüzgar 250º 4kt
Görünürlük >10km
Hava -
Bulutlar Clouds and Visibility OK
Basınç 1027
Değiştir No Significant change. Runway 21: Clear and dry, 51-100% contamination with <1mm, friction coefficient 0.60.
Ham USPP 281800Z 25002MPS CAVOK 01/M02 Q1027 R21/090060 NOSIG RMK QFE759

VFR

4°C / -1°C

[Daha fazla]
Rüzgar 10º 2kt
Görünürlük >10km
Hava -
Bulutlar Clouds and Visibility OK
Basınç 1027
Değiştir No Significant change. Runway 21: Clear and dry, 51-100% contamination with <1mm, friction coefficient 0.60.
Ham USPP 281730Z 01001MPS CAVOK 04/M01 Q1027 R21/090060 NOSIG RMK QFE759

VFR

4°C / -1°C

[Daha fazla]
Rüzgar 20º 4kt
Görünürlük >10km
Hava -
Bulutlar Clouds and Visibility OK
Basınç 1027
Değiştir No Significant change. Runway 21: Clear and dry, 51-100% contamination with <1mm, friction coefficient 0.60.
Ham USPP 281700Z 02002MPS CAVOK 04/M01 Q1027 R21/090060 NOSIG RMK QFE759

VFR

4°C / -1°C

[Daha fazla]
Rüzgar 20º 4kt
Görünürlük >10km
Hava -
Bulutlar Clouds and Visibility OK
Basınç 1027
Değiştir No Significant change. Runway 21: Clear and dry, 51-100% contamination with <1mm, friction coefficient 0.60.
Ham USPP 281630Z 02002MPS CAVOK 04/M01 Q1027 R21/090060 NOSIG RMK QFE759

VFR

5°C / -1°C

[Daha fazla]
Rüzgar 20º 4kt
Görünürlük >10km
Hava -
Bulutlar Clouds and Visibility OK
Basınç 1027
Değiştir No Significant change. Runway 21: Clear and dry, 51-100% contamination with <1mm, friction coefficient 0.60.
Ham USPP 281600Z 02002MPS CAVOK 05/M01 Q1027 R21/090060 NOSIG RMK QFE759

VFR

5°C / -1°C

[Daha fazla]
Rüzgar 20º 4kt
Görünürlük >10km
Hava -
Bulutlar Clouds and Visibility OK
Basınç 1026
Değiştir No Significant change. Runway 21: Clear and dry, 51-100% contamination with <1mm, friction coefficient 0.60.
Ham USPP 281530Z 02002MPS CAVOK 05/M01 Q1026 R21/090060 NOSIG RMK QFE759

VFR

6°C / -1°C

[Daha fazla]
Rüzgar 10º 4kt
Görünürlük >10km
Hava -
Bulutlar Clouds and Visibility OK
Basınç 1026
Değiştir No Significant change. Runway 21: Clear and dry, 51-100% contamination with <1mm, friction coefficient 0.60.
Ham USPP 281500Z 01002MPS CAVOK 06/M01 Q1026 R21/090060 NOSIG RMK QFE759

VFR

6°C / -1°C

[Daha fazla]
Rüzgar 360º 4kt
Görünürlük >10km
Hava -
Bulutlar Clouds and Visibility OK
Basınç 1026
Değiştir No Significant change. Runway 21: Clear and dry, 51-100% contamination with <1mm, friction coefficient 0.60.
Ham USPP 281430Z 36002MPS CAVOK 06/M01 Q1026 R21/090060 NOSIG RMK QFE759

VFR

7°C / -1°C

[Daha fazla]
Rüzgar 350º 6kt
Görünürlük >10km
Hava -
Bulutlar Clouds and Visibility OK
Basınç 1026
Değiştir No Significant change. Runway 03: Clear and dry, 51-100% contamination with <1mm, friction coefficient 0.60.
Ham USPP 281400Z 35003MPS CAVOK 07/M01 Q1026 R03/090060 NOSIG RMK QFE759

VFR

8°C / -2°C

[Daha fazla]
Rüzgar 340º 4kt
Görünürlük >10km
Hava -
Bulutlar Clouds and Visibility OK
Basınç 1026
Değiştir No Significant change. Runway 03: Clear and dry, 51-100% contamination with <1mm, friction coefficient 0.60.
Ham USPP 281330Z 34002MPS CAVOK 08/M02 Q1026 R03/090060 NOSIG RMK QFE759

VFR

8°C / -2°C

[Daha fazla]
Rüzgar 20º 6kt
Görünürlük >10km
Hava -
Bulutlar Clouds and Visibility OK
Basınç 1026
Değiştir No Significant change. Runway 03: Clear and dry, 51-100% contamination with <1mm, friction coefficient 0.60.
Ham USPP 281300Z 02003MPS CAVOK 08/M02 Q1026 R03/090060 NOSIG RMK QFE759

VFR

8°C / -3°C

[Daha fazla]
Rüzgar 40º 8kt
Görünürlük >10km
Hava -
Bulutlar Clouds and Visibility OK
Basınç 1026
Değiştir No Significant change. Runway 03: Clear and dry, 51-100% contamination with <1mm, friction coefficient 0.60.
Ham USPP 281230Z 04004MPS CAVOK 08/M03 Q1026 R03/090060 NOSIG RMK QFE759

VFR

9°C / -2°C

[Daha fazla]
Rüzgar 40º 10kt
Görünürlük >10km
Hava -
Bulutlar Clouds and Visibility OK
Basınç 1026
Değiştir No Significant change. Runway 03: Clear and dry, 51-100% contamination with <1mm, friction coefficient 0.60.
Ham USPP 281200Z 04005MPS CAVOK 09/M02 Q1026 R03/090060 NOSIG RMK QFE759

VFR

9°C / -3°C

[Daha fazla]
Rüzgar 50º 10kt
Görünürlük >10km
Hava -
Bulutlar Clouds and Visibility OK
Basınç 1026
Değiştir No Significant change. Runway 03: Clear and dry, 51-100% contamination with <1mm, friction coefficient 0.60.
Ham USPP 281130Z 05005MPS CAVOK 09/M03 Q1026 R03/090060 NOSIG RMK QFE759

57.92°K 56.02°D (USPP) için TAF

From till


From till Wind 240º 6kt. Visibility 6000m. Nil Significant Cloud.
Temporarly from till Visibility 305.775m. freezing Fog . Obscured Sky.
Becoming from till Wind 360º 6kt. Gust 17kt. Visibility 10km or more. Nil Significant Cloud.

Ham: TAF USPP 282256Z 2900/2924 24003MPS 6000 NSC TEMPO 2900/2905 0300 FZFG VV002 BECMG 2905/2907 36003G09MPS CAVOK

57.92°K 56.02°D için şu anki uydu ve yağmur görüntüleri

Konum işaretleyici 57.92°K 56.02°D üzerine yerleştirilir. [Daha fazla]

Gerçek zamanlı uydu görüntüsü gündüz süresince görülür ışığı gece süresince kızılötesi ışınım ile birleştirir. Gece kızılötesi ışınım sıcaklık farklarını algılayabildiğinden dolayı görüntü karanlık değildir. Ancak düşük bulutları ve sisi yer sıcaklığından ayırmak zordur ve bu nedenle gece boyunca neredeyse görünmez olabilirler. Avrupa için Meteosat uydu görüntüleri gerçek zamanlı olarak her 5 dakikada bir güncellenir. GOES-16/GOES-17 (Kuzey ve Güney Amerika) ve Himawari (Asya) görüntüleri her 10 dakikada bir güncellenir.

Copyright 2021 EUMETSAT / meteoblue. / Copyright 2021 meteoblue

57.92°K 56.02°D için radar ve yağış nowcast

çiseleyen yağmur
Hafif
Orta
Ağır
Çok ağır
Selamlamak

Konum işaretleyicisi 57.92°K 56.02°D üzerine yerleştirilir. Bu animasyon son saat içerisindeki yağış radarını ve 1h tahminini gösterir. Radar için çiseleyen yağmur veya hafif kar yağışı görünmez olabilir. Yağış yoğunluğu açık maviden turuncuya değişen renk kodludur.